AUA14K LSZH-LOWW

Flight info

Callsign AUA14K
Flight time 1h 7m
Altitude 31000
Route DEGES3E/10 DEGES Z2 XEBIX N871 BADVI L725 INPUL DCT NEMAL NEMAL2W
Aircraft A20N/M-SDE2E3FGHIRWXY/LB1

Departure

Time 2026-04-30 13:38
Airport Zürich Airport (LSZH)

Arrival

Time 2026-04-30 14:45
Airport Vienna International Airport (LOWW)
Time Latitude Longitude Altitude Speed Heading
2026-04-30 13:07 47.45428 8.55800 1408 ft 0 kts 185°
2026-04-30 13:26 47.45452 8.55803 1408 ft 2 kts 186°
2026-04-30 13:27 47.45482 8.55807 1409 ft 2 kts 188°
2026-04-30 13:28 47.45502 8.55844 1409 ft 1 kts 276°
2026-04-30 13:28 47.45501 8.55853 1409 ft 0 kts 276°
2026-04-30 13:31 47.45523 8.55592 1404 ft 16 kts 278°
2026-04-30 13:32 47.45470 8.55415 1401 ft 7 kts 204°
2026-04-30 13:32 47.45399 8.55368 1401 ft 0 kts 211°
2026-04-30 13:33 47.45382 8.55290 1400 ft 8 kts 280°
2026-04-30 13:33 47.45452 8.54994 1395 ft 21 kts 290°
2026-04-30 13:34 47.45503 8.54780 1393 ft 22 kts 289°
2026-04-30 13:34 47.45648 8.54123 1389 ft 22 kts 290°
2026-04-30 13:35 47.45696 8.53908 1391 ft 21 kts 287°
2026-04-30 13:35 47.45768 8.53758 1396 ft 0 kts 342°
2026-04-30 13:36 47.45858 8.53786 1398 ft 13 kts 44°
2026-04-30 13:36 47.45883 8.53882 1398 ft 0 kts 95°
2026-04-30 13:37 47.45830 8.54630 1391 ft 103 kts 96°
2026-04-30 13:38 47.45602 8.57709 1882 ft 174 kts 98°
2026-04-30 13:38 47.45359 8.59480 2636 ft 177 kts 96°
2026-04-30 13:38 47.45159 8.63008 3957 ft 185 kts 91°
2026-04-30 13:39 47.45289 8.67100 4803 ft 221 kts 78°
2026-04-30 13:39 47.46019 8.71934 4962 ft 256 kts 79°
2026-04-30 13:40 47.46308 8.74546 4961 ft 258 kts 80°
2026-04-30 13:40 47.46574 8.77183 5020 ft 262 kts 82°
2026-04-30 13:40 47.46697 8.79891 5664 ft 269 kts 87°
2026-04-30 13:40 47.46630 8.82557 6731 ft 266 kts 95°
2026-04-30 13:41 47.46338 8.85243 7667 ft 269 kts 100°
2026-04-30 13:41 47.45941 8.87937 8514 ft 274 kts 101°
2026-04-30 13:41 47.45523 8.90694 9367 ft 279 kts 101°
2026-04-30 13:41 47.45113 8.93491 10197 ft 283 kts 101°
2026-04-30 13:42 47.44701 8.96331 10871 ft 291 kts 101°
2026-04-30 13:42 47.44269 8.99340 11313 ft 309 kts 101°
2026-04-30 13:42 47.43333 9.05864 12046 ft 345 kts 100°
2026-04-30 13:43 47.42824 9.09389 12502 ft 358 kts 100°
2026-04-30 13:43 47.42310 9.12932 13144 ft 363 kts 100°
2026-04-30 13:43 47.41807 9.16579 13906 ft 365 kts 96°
2026-04-30 13:43 47.41627 9.20313 14622 ft 366 kts 87°
2026-04-30 13:44 47.41847 9.24013 15336 ft 367 kts 78°
2026-04-30 13:44 47.42362 9.27691 16032 ft 370 kts 76°
2026-04-30 13:44 47.42932 9.31387 16704 ft 373 kts 75°
2026-04-30 13:44 47.43512 9.35114 17357 ft 375 kts 75°
2026-04-30 13:45 47.44663 9.42633 18588 ft 382 kts 75°
2026-04-30 13:45 47.45245 9.46480 19178 ft 385 kts 75°
2026-04-30 13:45 47.45825 9.50340 19752 ft 388 kts 75°
2026-04-30 13:46 47.46407 9.54227 20320 ft 392 kts 75°
2026-04-30 13:46 47.46848 9.58187 20886 ft 396 kts 80°
2026-04-30 13:46 47.47032 9.62249 21472 ft 400 kts 85°
2026-04-30 13:46 47.46953 9.66342 22022 ft 405 kts 90°
2026-04-30 13:47 47.46744 9.70475 22547 ft 409 kts 91°
2026-04-30 13:47 47.46512 9.74617 23053 ft 412 kts 91°
2026-04-30 13:47 47.46272 9.78822 23578 ft 415 kts 91°
2026-04-30 13:47 47.46031 9.83068 24116 ft 417 kts 91°
2026-04-30 13:48 47.45792 9.87338 24619 ft 420 kts 91°
2026-04-30 13:48 47.45549 9.91615 25127 ft 422 kts 91°
2026-04-30 13:48 47.45303 9.95934 25676 ft 423 kts 91°
2026-04-30 13:48 47.45057 10.00225 26362 ft 420 kts 91°
2026-04-30 13:49 47.44810 10.04497 27043 ft 417 kts 91°
2026-04-30 13:49 47.44563 10.08738 27675 ft 415 kts 90°
2026-04-30 13:49 47.44320 10.12919 28275 ft 413 kts 90°
2026-04-30 13:49 47.44031 10.17117 28850 ft 413 kts 92°
2026-04-30 13:50 47.43600 10.21277 29417 ft 412 kts 95°
2026-04-30 13:50 47.42504 10.29532 30372 ft 411 kts 96°
2026-04-30 13:50 47.41948 10.33653 30707 ft 412 kts 95°
2026-04-30 13:51 47.41394 10.37793 31035 ft 413 kts 94°
2026-04-30 13:51 47.41036 10.41936 31257 ft 412 kts 89°
2026-04-30 13:51 47.41224 10.50324 31274 ft 410 kts 77°
2026-04-30 13:52 47.42592 10.58457 31276 ft 409 kts 67°
2026-04-30 13:52 47.44469 10.66182 31277 ft 410 kts 67°
2026-04-30 13:53 47.46409 10.74073 31279 ft 409 kts 67°
2026-04-30 13:53 47.48326 10.81923 31281 ft 409 kts 67°
2026-04-30 13:54 47.50240 10.89833 31284 ft 409 kts 67°
2026-04-30 13:54 47.52131 10.97687 31291 ft 408 kts 67°
2026-04-30 13:55 47.54021 11.05557 31276 ft 408 kts 67°
2026-04-30 13:55 47.55915 11.13445 31284 ft 408 kts 67°
2026-04-30 13:56 47.57812 11.21364 31284 ft 407 kts 66°
2026-04-30 13:56 47.59685 11.29221 31287 ft 407 kts 67°
2026-04-30 13:57 47.61557 11.37110 31284 ft 406 kts 67°
2026-04-30 13:57 47.63275 11.45013 31281 ft 407 kts 69°
2026-04-30 13:58 47.65727 11.57015 31287 ft 406 kts 69°
2026-04-30 13:59 47.67358 11.65000 31283 ft 406 kts 69°
2026-04-30 13:59 47.68959 11.72884 31275 ft 406 kts 69°
2026-04-30 14:00 47.70566 11.80889 31295 ft 406 kts 70°
2026-04-30 14:00 47.72819 11.92928 31295 ft 405 kts 71°
2026-04-30 14:01 47.74043 12.01032 31158 ft 406 kts 73°
2026-04-30 14:01 47.74617 12.05109 30910 ft 402 kts 73°
2026-04-30 14:01 47.75186 12.09183 30653 ft 400 kts 73°
2026-04-30 14:02 47.75740 12.13164 30395 ft 397 kts 73°
2026-04-30 14:02 47.76299 12.17184 30124 ft 396 kts 73°
2026-04-30 14:02 47.76856 12.21191 29798 ft 397 kts 73°
2026-04-30 14:02 47.77409 12.25167 29291 ft 399 kts 73°
2026-04-30 14:03 47.77970 12.29210 28644 ft 400 kts 73°
2026-04-30 14:03 47.78529 12.33258 27920 ft 403 kts 73°
2026-04-30 14:03 47.79087 12.37326 27152 ft 404 kts 73°
2026-04-30 14:03 47.79637 12.41353 26404 ft 402 kts 74°
2026-04-30 14:04 47.80192 12.45436 25910 ft 399 kts 74°
2026-04-30 14:04 47.80727 12.49404 25422 ft 397 kts 73°
2026-04-30 14:04 47.81272 12.53414 24912 ft 395 kts 73°
2026-04-30 14:04 47.81813 12.57403 24407 ft 393 kts 74°
2026-04-30 14:05 47.82348 12.61370 23908 ft 390 kts 74°
2026-04-30 14:05 47.82855 12.65187 23441 ft 387 kts 75°
2026-04-30 14:05 47.83373 12.69112 22957 ft 386 kts 75°
2026-04-30 14:05 47.83868 12.72855 22494 ft 384 kts 75°
2026-04-30 14:06 47.84318 12.76759 22002 ft 383 kts 76°
2026-04-30 14:06 47.85142 12.84497 20902 ft 376 kts 77°
2026-04-30 14:07 47.85932 12.92046 19828 ft 369 kts 77°
2026-04-30 14:07 47.86324 12.95805 19290 ft 366 kts 77°
2026-04-30 14:07 47.86711 12.99528 18763 ft 363 kts 77°
2026-04-30 14:08 47.87470 13.06872 17716 ft 358 kts 77°
2026-04-30 14:08 47.87847 13.10518 17202 ft 356 kts 77°
2026-04-30 14:08 47.88588 13.17728 16179 ft 353 kts 78°
2026-04-30 14:09 47.88953 13.21312 15661 ft 351 kts 78°
2026-04-30 14:09 47.89314 13.24857 15174 ft 350 kts 78°
2026-04-30 14:09 47.90036 13.32006 14129 ft 348 kts 78°
2026-04-30 14:10 47.90392 13.35554 13599 ft 347 kts 78°
2026-04-30 14:10 47.90742 13.39039 13089 ft 346 kts 78°
2026-04-30 14:10 47.91094 13.42571 12596 ft 344 kts 79°
2026-04-30 14:10 47.91446 13.46097 12056 ft 344 kts 79°
2026-04-30 14:11 47.91705 13.49625 11559 ft 343 kts 83°
2026-04-30 14:11 47.91804 13.53144 11340 ft 345 kts 87°
2026-04-30 14:11 47.91800 13.56653 11320 ft 328 kts 88°
2026-04-30 14:11 47.91782 13.59964 11315 ft 310 kts 88°
2026-04-30 14:12 47.91763 13.63040 11308 ft 292 kts 87°
2026-04-30 14:12 47.91746 13.65948 11285 ft 279 kts 88°
2026-04-30 14:12 47.91732 13.68798 11302 ft 278 kts 88°
2026-04-30 14:12 47.91719 13.71647 11331 ft 278 kts 88°
2026-04-30 14:13 47.91705 13.74539 11321 ft 278 kts 88°
2026-04-30 14:13 47.91689 13.77396 11299 ft 279 kts 88°
2026-04-30 14:13 47.91672 13.80317 11326 ft 279 kts 88°
2026-04-30 14:13 47.91655 13.83185 11310 ft 279 kts 88°
2026-04-30 14:14 47.91639 13.86082 11313 ft 280 kts 88°
2026-04-30 14:14 47.91621 13.88950 11320 ft 279 kts 88°
2026-04-30 14:14 47.91602 13.91860 11305 ft 279 kts 88°
2026-04-30 14:14 47.91582 13.94715 11310 ft 278 kts 88°
2026-04-30 14:15 47.91561 13.97589 11312 ft 277 kts 88°
2026-04-30 14:15 47.91539 14.00465 11298 ft 277 kts 88°
2026-04-30 14:15 47.91517 14.03353 11306 ft 278 kts 88°
2026-04-30 14:15 47.91494 14.06202 11295 ft 279 kts 87°
2026-04-30 14:16 47.91469 14.09091 11314 ft 279 kts 87°
2026-04-30 14:16 47.91445 14.11965 11312 ft 279 kts 88°
2026-04-30 14:16 47.91420 14.14851 11328 ft 279 kts 88°
2026-04-30 14:16 47.91394 14.17721 11315 ft 279 kts 88°
2026-04-30 14:17 47.91367 14.20608 11312 ft 279 kts 88°
2026-04-30 14:17 47.91339 14.23486 11317 ft 279 kts 88°
2026-04-30 14:17 47.91310 14.26401 11336 ft 279 kts 88°
2026-04-30 14:17 47.91280 14.29251 11334 ft 278 kts 88°
2026-04-30 14:18 47.91249 14.32139 11329 ft 278 kts 88°
2026-04-30 14:18 47.91218 14.35012 11329 ft 278 kts 88°
2026-04-30 14:18 47.91153 14.40749 11332 ft 278 kts 87°
2026-04-30 14:19 47.91087 14.46521 11351 ft 279 kts 87°
2026-04-30 14:19 47.91056 14.49377 11348 ft 279 kts 88°
2026-04-30 14:19 47.91021 14.52259 11336 ft 279 kts 88°
2026-04-30 14:20 47.90986 14.55146 11336 ft 279 kts 88°
2026-04-30 14:20 47.90949 14.58014 11342 ft 279 kts 88°
2026-04-30 14:20 47.90873 14.63809 11330 ft 278 kts 87°
2026-04-30 14:21 47.90834 14.66573 11328 ft 278 kts 88°
2026-04-30 14:21 47.90796 14.69411 11337 ft 278 kts 88°
2026-04-30 14:21 47.90714 14.75164 11319 ft 278 kts 88°
2026-04-30 14:22 47.90674 14.78013 11325 ft 278 kts 88°
2026-04-30 14:22 47.90592 14.83766 11323 ft 279 kts 88°
2026-04-30 14:22 47.90550 14.86680 11336 ft 279 kts 88°
2026-04-30 14:23 47.90459 14.92440 11315 ft 279 kts 88°
2026-04-30 14:23 47.90367 14.98185 11343 ft 279 kts 88°
2026-04-30 14:24 47.90271 15.03970 11343 ft 279 kts 88°
2026-04-30 14:24 47.90221 15.06853 11335 ft 278 kts 88°
2026-04-30 14:25 47.90121 15.12599 11338 ft 278 kts 88°
2026-04-30 14:25 47.90020 15.18344 11323 ft 279 kts 88°
2026-04-30 14:26 47.89912 15.24072 11078 ft 275 kts 88°
2026-04-30 14:26 47.89859 15.26920 10626 ft 276 kts 88°
2026-04-30 14:26 47.89752 15.32579 9854 ft 273 kts 88°
2026-04-30 14:27 47.89696 15.35378 9469 ft 272 kts 88°
2026-04-30 14:27 47.89641 15.38181 9101 ft 270 kts 88°
2026-04-30 14:27 47.89590 15.40944 8917 ft 267 kts 88°
2026-04-30 14:28 47.89463 15.46493 8914 ft 269 kts 91°
2026-04-30 14:28 47.89233 15.49227 8775 ft 266 kts 96°
2026-04-30 14:28 47.88836 15.51914 8335 ft 269 kts 100°
2026-04-30 14:28 47.88388 15.54607 7976 ft 266 kts 100°
2026-04-30 14:29 47.87490 15.59940 7921 ft 268 kts 100°
2026-04-30 14:29 47.86594 15.65261 7916 ft 269 kts 101°
2026-04-30 14:30 47.85232 15.73350 7919 ft 270 kts 101°
2026-04-30 14:31 47.84317 15.78776 7925 ft 270 kts 101°
2026-04-30 14:31 47.83403 15.84181 7925 ft 270 kts 101°
2026-04-30 14:31 47.82949 15.86858 7923 ft 270 kts 101°
2026-04-30 14:32 47.82031 15.92262 7925 ft 270 kts 101°
2026-04-30 14:32 47.81569 15.94969 7923 ft 270 kts 101°
2026-04-30 14:32 47.81107 15.97676 7914 ft 271 kts 101°
2026-04-30 14:33 47.80642 16.00396 7917 ft 271 kts 101°
2026-04-30 14:33 47.79712 16.05820 7942 ft 271 kts 100°
2026-04-30 14:33 47.79308 16.08552 7940 ft 269 kts 91°
2026-04-30 14:34 47.79427 16.11267 7950 ft 265 kts 78°
2026-04-30 14:34 47.79744 16.13944 7950 ft 264 kts 76°
2026-04-30 14:34 47.80066 16.16635 7951 ft 264 kts 77°
2026-04-30 14:34 47.80364 16.19348 7951 ft 264 kts 78°
2026-04-30 14:35 47.80888 16.24634 7296 ft 262 kts 79°
2026-04-30 14:35 47.81139 16.27333 6889 ft 262 kts 79°
2026-04-30 14:35 47.81379 16.29976 6500 ft 261 kts 79°
2026-04-30 14:36 47.81617 16.32655 6114 ft 260 kts 79°
2026-04-30 14:36 47.81850 16.35293 5744 ft 259 kts 79°
2026-04-30 14:36 47.82083 16.37946 5374 ft 258 kts 79°
2026-04-30 14:36 47.82320 16.40581 5026 ft 255 kts 77°
2026-04-30 14:37 47.82921 16.43013 4717 ft 251 kts 57°
2026-04-30 14:37 47.83876 16.45143 4421 ft 250 kts 53°
2026-04-30 14:37 47.84874 16.47266 4119 ft 249 kts 53°
2026-04-30 14:37 47.85829 16.49375 3811 ft 247 kts 54°
2026-04-30 14:38 47.86759 16.51509 3501 ft 243 kts 55°
2026-04-30 14:38 47.87657 16.53619 3223 ft 239 kts 55°
2026-04-30 14:38 47.88518 16.55674 2994 ft 233 kts 56°
2026-04-30 14:38 47.89346 16.57666 2963 ft 219 kts 55°
2026-04-30 14:39 47.90123 16.59548 2945 ft 201 kts 55°
2026-04-30 14:39 47.90815 16.61225 2939 ft 188 kts 55°
2026-04-30 14:39 47.91491 16.62855 3027 ft 177 kts 55°
2026-04-30 14:40 47.92920 16.65106 2917 ft 138 kts 12°
2026-04-30 14:40 47.93873 16.65153 2952 ft 139 kts 356°
2026-04-30 14:40 47.94835 16.64916 2975 ft 140 kts 351°
2026-04-30 14:40 47.95781 16.64600 2963 ft 140 kts 349°
2026-04-30 14:41 47.96731 16.64243 2957 ft 140 kts 348°
2026-04-30 14:41 47.97670 16.63867 2857 ft 141 kts 348°
2026-04-30 14:41 47.98616 16.63474 2666 ft 140 kts 347°
2026-04-30 14:41 47.99524 16.63088 2470 ft 130 kts 348°
2026-04-30 14:42 48.00364 16.62730 2291 ft 126 kts 348°
2026-04-30 14:42 48.01211 16.62374 2138 ft 125 kts 346°
2026-04-30 14:42 48.02053 16.62017 1973 ft 125 kts 348°
2026-04-30 14:42 48.02890 16.61664 1817 ft 128 kts 345°
2026-04-30 14:43 48.03762 16.61294 1649 ft 131 kts 346°
2026-04-30 14:43 48.04639 16.60920 1467 ft 131 kts 348°
2026-04-30 14:43 48.05523 16.60546 1290 ft 132 kts 347°
2026-04-30 14:43 48.06385 16.60169 1109 ft 131 kts 346°
2026-04-30 14:44 48.07263 16.59832 931 ft 131 kts 348°
2026-04-30 14:44 48.08140 16.59440 785 ft 130 kts 346°
2026-04-30 14:44 48.09008 16.59076 619 ft 130 kts 348°
2026-04-30 14:44 48.09808 16.58745 611 ft 99 kts 342°
2026-04-30 14:45 48.10374 16.58508 613 ft 79 kts 343°
2026-04-30 14:45 48.10731 16.58280 611 ft 47 kts 317°
2026-04-30 14:45 48.10856 16.58092 610 ft 8 kts 316°
2026-04-30 14:45 48.10857 16.58091 610 ft 0 kts 316°
2026-04-30 14:46 48.10860 16.58085 610 ft 1 kts 316°
2026-04-30 14:46 48.10873 16.58066 610 ft 3 kts 316°
2026-04-30 14:46 48.10895 16.58035 610 ft 5 kts 316°
2026-04-30 14:46 48.10926 16.57993 609 ft 6 kts 323°
2026-04-30 14:47 48.10972 16.57957 609 ft 8 kts 336°
2026-04-30 14:47 48.11028 16.57919 609 ft 6 kts 339°
2026-04-30 14:47 48.11071 16.57907 608 ft 7 kts 351°
2026-04-30 14:47 48.11130 16.57893 608 ft 10 kts 351°
2026-04-30 14:48 48.11208 16.57866 607 ft 13 kts 345°
2026-04-30 14:48 48.11325 16.57816 606 ft 21 kts 344°
2026-04-30 14:48 48.11488 16.57748 605 ft 26 kts 345°
2026-04-30 14:48 48.11641 16.57681 603 ft 17 kts 342°
2026-04-30 14:49 48.11755 16.57629 602 ft 17 kts 345°
2026-04-30 14:49 48.11828 16.57529 601 ft 15 kts 266°
2026-04-30 14:49 48.11808 16.57373 601 ft 15 kts 275°
2026-04-30 14:49 48.11845 16.57227 600 ft 15 kts 288°
2026-04-30 14:50 48.11924 16.56928 598 ft 9 kts 297°
2026-04-30 14:50 48.11934 16.56877 598 ft 4 kts 248°
2026-04-30 14:51 48.11894 16.56835 598 ft 1 kts 205°
2026-04-30 14:51 48.11888 16.56831 598 ft 0 kts 206°
2026-04-30 14:51 48.11881 16.56826 598 ft 0 kts 206°